Location: Diati
(11.8376°N, 2.5966°E)
Time: 17:54:57
(UTC+00:00)

DELTA-4 R/B - Pass Details

Date: 21 September 2020
Orbit: 467 x 34491 km, 13.4° (Epoch: 20 October)

Event Time Altitude Azimuth Distance (km) Brightness Sun altitude
Rises 17:52:41 0° 275° (W) 2,841 9.1 -2.4°
Reaches altitude 10° 17:54:04 10° 273° (W) 2,212 7.5 -2.8°
Maximum altitude 17:58:27 79° 187° (S) 1,360 4.3 -3.9°
Drops below altitude 10° 18:24:42 10° 102° (ESE) 11,257 8.3 -10.3°
Enters shadow 18:25:57 - 102° (ESE) 11,656 8.3 -10.6°
